This demonstration page uses our WeatherBlox Daily Observations layout. Learn more.

Left ArrowRight Arrow

38.83388, -104.82136

Hourly Observations for January 2, 2021

Temp ( °F °C ) Dew Point ( °F °C ) Humidity (%) Winds ( mph kmh ) Pressure ( in mb ) Visibility ( mi km ) Precip ( " mm )
12:58 am 00:58 Clear 21 -5.9 15 -9.5 76 76 Calm 29.79 1009 10 16 0.00 0.00
1:58 am 01:58 Clear 21 -6.1 14 -9.9 75 75 NNW 5 7 29.77 1008 10 16 0.00 0.00
2:58 am 02:58 Clear 22 -5.3 14 -9.9 70 70 Calm 29.76 1008 10 16 0.00 0.00
3:58 am 03:58 Clear 22 -5.4 13 -10.8 66 66 WNW 5 7 29.75 1007 10 16 0.00 0.00
4:58 am 04:58 Clear 25 -4 10 -12.2 53 53 Calm 29.73 1007 10 16 0.00 0.00
5:58 am 05:58 Clear 25 -4.1 8 -13.4 49 49 W 3 6 29.73 1007 10 16 0.00 0.00
6:58 am 06:58 Clear 26 -3.6 6 -14.7 42 42 W 3 6 29.73 1007 10 16 0.00 0.00
7:58 am 07:58 Sunny 31 -0.8 7 -14.1 36 36 S 3 6 29.71 1006 10 16 0.00 0.00
8:58 am 08:58 Sunny 40 4.3 4 -15.7 22 22 Calm 29.67 1005 10 16 0.00 0.00
9:58 am 09:58 Sunny 43 6 5 -15.1 20 20 ESE 6 9 29.66 1004 10 16 0.00 0.00
10:58 am 10:58 Sunny 44 6.4 10 -12.4 25 25 ESE 8 13 29.62 1003 10 16 0.00 0.00
11:58 am 11:58 Sunny 42 5.7 10 -12.2 27 27 SE 6 9 29.61 1003 10 16 0.00 0.00
12:58 pm 12:58 Sunny 45 7 12 -11 27 27 ESE 5 7 29.55 1001 10 16 0.00 0.00
1:58 pm 13:58 Sunny 43 6.3 14 -9.8 31 31 SE 8 13 29.56 1001 10 16 0.00 0.00
2:58 pm 14:58 Sunny 41 4.8 8 -13.2 26 26 SSE 8 13 29.56 1001 10 16 0.00 0.00
3:58 pm 15:58 Mostly Sunny 37 2.8 10 -12.5 32 32 WNW 6 9 29.61 1003 10 16 0.00 0.00
4:58 pm 16:58 Mostly Cloudy 36 2.4 10 -12.5 33 33 N 6 9 29.64 1004 10 16 0.00 0.00
5:58 pm 17:58 Mostly Cloudy 38 3.3 7 -14 27 27 NW 8 13 29.65 1004 10 16 0.00 0.00
6:58 pm 18:58 Mostly Cloudy 34 1.2 7 -14.1 31 31 Calm 29.67 1005 10 16 0.00 0.00
7:58 pm 19:58 Clear 37 2.8 5 -14.8 26 26 SW 6 9 29.65 1004 10 16 0.00 0.00
8:58 pm 20:58 Clear 36 2 -2 -19 20 20 NNW 9 15 29.62 1003 10 16 0.00 0.00
9:58 pm 21:58 Clear 31 -0.6 5 -14.9 33 33 WSW 5 7 29.62 1003 10 16 0.00 0.00
10:58 pm 22:58 Clear 31 -0.4 6 -14.3 35 35 SSW 14 22 29.62 1003 10 16 0.00 0.00
11:58 pm 23:58 Clear 32 -0.1 5 -14.9 32 32 SSW 10 17 29.61 1003 10 16 0.00 0.00

Powered by AerisWeather